| time (UTC) | temp F | wind direction | speed MPH | gust MPH | rain 1hr in | rain 24hr in | rain mn in | humidity % | barometer mb |
| 20260901003541 | 81 | 166 | 0.0 | 3.0 | 0.00 | 0.00 | 0.00 | 31 | 1018.6 |
| 20260901003107 | 81 | 0 | 0.0 | 3.0 | 0.00 | 0.00 | 0.00 | 31 | 1018.6 |
| 20260901002537 | 81 | 0 | 0.0 | 4.0 | 0.00 | 0.00 | 0.00 | 31 | 1018.7 |
| 20260901002037 | 81 | 0 | 1.0 | 4.0 | 0.00 | 0.00 | 0.00 | 31 | 1018.6 |
| 20260901001555 | 82 | 347 | 1.0 | 6.0 | 0.00 | 0.00 | 0.00 | 30 | 1018.7 |
| 20260901001034 | 82 | 347 | 1.0 | 6.0 | 0.00 | 0.00 | 0.00 | 30 | 1018.6 |
| 20260901000538 | 82 | 347 | 2.0 | 6.0 | 0.00 | 0.00 | 0.00 | 29 | 1018.7 |
| 20260901000053 | 82 | 347 | 2.0 | 9.0 | 0.00 | 0.00 | 0.00 | 30 | 1018.6 |
| 20260831235537 | 82 | 347 | 2.0 | 9.0 | 0.00 | 0.00 | 0.00 | 30 | 1018.6 |
| 20260831235040 | 83 | 148 | 2.0 | 10.0 | 0.00 | 0.00 | 0.00 | 31 | 1018.6 |
| 20260831234553 | 83 | 148 | 4.0 | 10.0 | 0.00 | 0.00 | 0.00 | 29 | 1018.5 |
| 20260831234039 | 83 | 110 | 5.0 | 10.0 | 0.00 | 0.00 | 0.00 | 29 | 1018.5 |
| 20260831233538 | 83 | 129 | 5.0 | 12.0 | 0.00 | 0.00 | 0.00 | 29 | 1018.5 |
| 20260831233054 | 83 | 85 | 4.0 | 12.0 | 0.00 | 0.00 | 0.00 | 29 | 1018.5 |
| 20260831232537 | 83 | 118 | 4.0 | 12.0 | 0.00 | 0.00 | 0.00 | 31 | 1018.6 |
| 20260831232034 | 83 | 150 | 4.0 | 12.0 | 0.00 | 0.00 | 0.00 | 29 | 1018.6 |
| 20260831231613 | 83 | 132 | 3.0 | 9.0 | 0.00 | 0.00 | 0.00 | 30 | 1018.6 |
| 20260831231040 | 83 | 167 | 3.0 | 11.0 | 0.00 | 0.00 | 0.00 | 30 | 1018.7 |
| 20260831230539 | 84 | 121 | 3.0 | 14.0 | 0.00 | 0.00 | 0.00 | 29 | 1018.7 |
| 20260831230058 | 84 | 183 | 5.0 | 14.0 | 0.00 | 0.00 | 0.00 | 29 | 1018.8 |
| 20260831225534 | 84 | 154 | 4.0 | 10.0 | 0.00 | 0.00 | 0.00 | 29 | 1018.7 |
| 20260831225036 | 84 | 129 | 3.0 | 12.0 | 0.00 | 0.00 | 0.00 | 30 | 1018.7 |
| 20260831224558 | 84 | 131 | 3.0 | 13.0 | 0.00 | 0.00 | 0.00 | 30 | 1018.6 |
| 20260831224038 | 84 | 169 | 5.0 | 13.0 | 0.00 | 0.00 | 0.00 | 30 | 1018.6 |
| 20260831223538 | 84 | 146 | 6.0 | 14.0 | 0.00 | 0.00 | 0.00 | 31 | 1018.6 |
| 20260831223101 | 84 | 127 | 5.0 | 14.0 | 0.00 | 0.00 | 0.00 | 31 | 1018.7 |
| 20260831222537 | 85 | 159 | 7.0 | 13.0 | 0.00 | 0.00 | 0.00 | 30 | 1018.7 |
| 20260831222038 | 85 | 90 | 3.0 | 10.0 | 0.00 | 0.00 | 0.00 | 32 | 1018.6 |
| 20260831221551 | 85 | 108 | 4.0 | 10.0 | 0.00 | 0.00 | 0.00 | 30 | 1018.6 |
| 20260831221037 | 85 | 144 | 4.0 | 10.0 | 0.00 | 0.00 | 0.00 | 32 | 1018.7 |
| 20260831220537 | 85 | 180 | 5.0 | 11.0 | 0.00 | 0.00 | 0.00 | 31 | 1018.7 |
| 20260831220050 | 85 | 191 | 4.0 | 12.0 | 0.00 | 0.00 | 0.00 | 31 | 1018.6 |
| 20260831215537 | 85 | 163 | 5.0 | 12.0 | 0.00 | 0.00 | 0.00 | 31 | 1018.7 |
| 20260831215037 | 85 | 105 | 2.0 | 11.0 | 0.00 | 0.00 | 0.00 | 31 | 1018.7 |
| 20260831214556 | 85 | 131 | 4.0 | 11.0 | 0.00 | 0.00 | 0.00 | 29 | 1018.7 |
| 20260831214038 | 85 | 112 | 5.0 | 11.0 | 0.00 | 0.00 | 0.00 | 30 | 1018.8 |
| 20260831213537 | 85 | 234 | 4.0 | 11.0 | 0.00 | 0.00 | 0.00 | 32 | 1018.8 |
| 20260831213058 | 84 | 195 | 4.0 | 10.0 | 0.00 | 0.00 | 0.00 | 33 | 1018.9 |
| 20260831212537 | 84 | 203 | 3.0 | 10.0 | 0.00 | 0.00 | 0.00 | 33 | 1019.1 |
| 20260831212041 | 84 | 198 | 5.0 | 9.0 | 0.00 | 0.00 | 0.00 | 33 | 1019.1 |
| 20260831211603 | 84 | 188 | 2.0 | 8.0 | 0.00 | 0.00 | 0.00 | 33 | 1019.3 |
| 20260831211034 | 83 | 202 | 3.0 | 10.0 | 0.00 | 0.00 | 0.00 | 34 | 1019.3 |
| 20260831210536 | 83 | 177 | 4.0 | 10.0 | 0.00 | 0.00 | 0.00 | 33 | 1019.4 |
| 20260831210100 | 82 | 123 | 5.0 | 10.0 | 0.00 | 0.00 | 0.00 | 33 | 1019.4 |
| 20260831205534 | 83 | 101 | 2.0 | 9.0 | 0.00 | 0.00 | 0.00 | 32 | 1019.5 |
| 20260831205034 | 83 | 194 | 3.0 | 10.0 | 0.00 | 0.00 | 0.00 | 32 | 1019.6 |
| 20260831204555 | 83 | 127 | 4.0 | 10.0 | 0.00 | 0.00 | 0.00 | 31 | 1019.8 |
| 20260831204038 | 83 | 146 | 4.0 | 9.0 | 0.00 | 0.00 | 0.00 | 33 | 1019.8 |
| 20260831203537 | 83 | 212 | 3.0 | 9.0 | 0.00 | 0.00 | 0.00 | 34 | 1019.9 |
| 20260831203058 | 83 | 164 | 3.0 | 11.0 | 0.00 | 0.00 | 0.00 | 34 | 1020.0 |
| 20260831202537 | 84 | 135 | 5.0 | 11.0 | 0.00 | 0.00 | 0.00 | 32 | 1020.1 |
| 20260831202037 | 84 | 182 | 3.0 | 10.0 | 0.00 | 0.00 | 0.00 | 33 | 1020.1 |
| 20260831201559 | 84 | 174 | 4.0 | 10.0 | 0.00 | 0.00 | 0.00 | 34 | 1020.2 |
| 20260831201038 | 83 | 165 | 3.0 | 9.0 | 0.00 | 0.00 | 0.00 | 33 | 1020.3 |
| 20260831200534 | 83 | 159 | 4.0 | 9.0 | 0.00 | 0.00 | 0.00 | 32 | 1020.4 |
| 20260831200101 | 83 | 215 | 2.0 | 8.0 | 0.00 | 0.00 | 0.00 | 32 | 1020.4 |
| 20260831195539 | 82 | 206 | 3.0 | 8.0 | 0.00 | 0.00 | 0.00 | 35 | 1020.4 |
| 20260831195037 | 83 | 178 | 3.0 | 9.0 | 0.00 | 0.00 | 0.00 | 33 | 1020.5 |
| 20260831194636 | 83 | 194 | 2.0 | 10.0 | 0.00 | 0.00 | 0.00 | 35 | 1020.7 |
| 20260831194036 | 82 | 165 | 4.0 | 10.0 | 0.00 | 0.00 | 0.00 | 34 | 1020.7 |
| 20260831193536 | 82 | 196 | 2.0 | 10.0 | 0.00 | 0.00 | 0.00 | 37 | 1020.8 |
| 20260831193058 | 81 | 156 | 4.0 | 10.0 | 0.00 | 0.00 | 0.00 | 35 | 1020.8 |
| 20260831192537 | 81 | 107 | 3.0 | 9.0 | 0.00 | 0.00 | 0.00 | 36 | 1020.8 |
| 20260831192037 | 80 | 192 | 1.0 | 7.0 | 0.00 | 0.00 | 0.00 | 37 | 1021.0 |
| 20260831191550 | 80 | 0 | 3.0 | 7.0 | 0.00 | 0.00 | 0.00 | 38 | 1021.0 |
| 20260831191037 | 80 | 116 | 3.0 | 9.0 | 0.00 | 0.00 | 0.00 | 36 | 1021.1 |
| 20260831190535 | 80 | 94 | 2.0 | 9.0 | 0.00 | 0.00 | 0.00 | 39 | 1021.1 |
| 20260831190108 | 80 | 162 | 3.0 | 9.0 | 0.00 | 0.00 | 0.00 | 34 | 1021.1 |
| 20260831185537 | 80 | 88 | 3.0 | 9.0 | 0.00 | 0.00 | 0.00 | 37 | 1021.2 |
| 20260831185039 | 80 | 139 | 3.0 | 9.0 | 0.00 | 0.00 | 0.00 | 35 | 1021.3 |
| 20260831184600 | 80 | 145 | 4.0 | 9.0 | 0.00 | 0.00 | 0.00 | 34 | 1021.3 |
| 20260831184036 | 80 | 126 | 2.0 | 10.0 | 0.00 | 0.00 | 0.00 | 36 | 1021.3 |
| 20260831183534 | 80 | 115 | 1.0 | 10.0 | 0.00 | 0.00 | 0.00 | 36 | 1021.3 |
| 20260831183054 | 80 | 123 | 4.0 | 7.0 | 0.00 | 0.00 | 0.00 | 33 | 1021.4 |
| 20260831182536 | 80 | 164 | 2.0 | 6.0 | 0.00 | 0.00 | 0.00 | 34 | 1021.3 |
| 20260831182036 | 79 | 200 | 1.0 | 7.0 | 0.00 | 0.00 | 0.00 | 35 | 1021.4 |
| 20260831181554 | 80 | 179 | 3.0 | 8.0 | 0.00 | 0.00 | 0.00 | 35 | 1021.4 |
| 20260831181036 | 79 | 125 | 1.0 | 9.0 | 0.00 | 0.00 | 0.00 | 35 | 1021.5 |
| 20260831180536 | 79 | 142 | 4.0 | 9.0 | 0.00 | 0.00 | 0.00 | 37 | 1021.6 |
| 20260831180100 | 79 | 170 | 2.0 | 8.0 | 0.00 | 0.00 | 0.00 | 35 | 1021.6 |
| 20260831175540 | 79 | 156 | 3.0 | 8.0 | 0.00 | 0.00 | 0.00 | 33 | 1021.6 |
| 20260831175036 | 79 | 74 | 3.0 | 8.0 | 0.00 | 0.00 | 0.00 | 34 | 1021.6 |
| 20260831174555 | 80 | 177 | 2.0 | 6.0 | 0.00 | 0.00 | 0.00 | 34 | 1021.7 |
| 20260831174034 | 80 | 180 | 2.0 | 8.0 | 0.00 | 0.00 | 0.00 | 34 | 1021.7 |
| 20260831173533 | 80 | 183 | 3.0 | 8.0 | 0.00 | 0.00 | 0.00 | 36 | 1021.7 |
| 20260831173057 | 80 | 173 | 1.0 | 7.0 | 0.00 | 0.00 | 0.00 | 36 | 1021.8 |
| 20260831172536 | 80 | 185 | 3.0 | 7.0 | 0.00 | 0.00 | 0.00 | 34 | 1021.7 |
| 20260831172037 | 79 | 117 | 1.0 | 4.0 | 0.00 | 0.00 | 0.00 | 35 | 1021.8 |
| 20260831171600 | 78 | 91 | 0.0 | 4.0 | 0.00 | 0.00 | 0.00 | 41 | 1021.7 |
| 20260831171037 | 78 | 0 | 2.0 | 6.0 | 0.00 | 0.00 | 0.00 | 37 | 1021.8 |
| 20260831170537 | 79 | 200 | 1.0 | 6.0 | 0.00 | 0.00 | 0.00 | 38 | 1021.7 |
| 20260831170114 | 79 | 98 | 2.0 | 6.0 | 0.00 | 0.00 | 0.00 | 38 | 1021.7 |
| 20260831165541 | 80 | 127 | 1.0 | 4.0 | 0.00 | 0.00 | 0.00 | 41 | 1021.8 |
| 20260831165036 | 79 | 232 | 1.0 | 6.0 | 0.00 | 0.00 | 0.00 | 36 | 1021.8 |
| 20260831164553 | 79 | 247 | 2.0 | 6.0 | 0.00 | 0.00 | 0.00 | 39 | 1021.8 |
| 20260831164036 | 78 | 208 | 2.0 | 6.0 | 0.00 | 0.00 | 0.00 | 39 | 1021.8 |
| 20260831163534 | 78 | 129 | 1.0 | 5.0 | 0.00 | 0.00 | 0.00 | 39 | 1021.8 |
| 20260831163050 | 78 | 79 | 0.0 | 5.0 | 0.00 | 0.00 | 0.00 | 39 | 1021.8 |
| 20260831162537 | 78 | 145 | 2.0 | 5.0 | 0.00 | 0.00 | 0.00 | 40 | 1021.8 |
| 20260831162037 | 76 | 0 | 0.0 | 2.0 | 0.00 | 0.00 | 0.00 | 41 | 1021.7 |
| 20260831161601 | 76 | 69 | 1.0 | 3.0 | 0.00 | 0.00 | 0.00 | 38 | 1021.6 |
| 20260831161038 | 75 | 0 | 1.0 | 3.0 | 0.00 | 0.00 | 0.00 | 41 | 1021.6 |
| 20260831160536 | 76 | 46 | 0.0 | 3.0 | 0.00 | 0.00 | 0.00 | 39 | 1021.6 |
| 20260831160057 | 76 | 0 | 0.0 | 3.0 | 0.00 | 0.00 | 0.00 | 41 | 1021.6 |
| 20260831155539 | 76 | 101 | 1.0 | 3.0 | 0.00 | 0.00 | 0.00 | 42 | 1021.6 |
| 20260831155039 | 75 | 92 | 1.0 | 3.0 | 0.00 | 0.00 | 0.00 | 39 | 1021.7 |
| 20260831154629 | 75 | 39 | 1.0 | 3.0 | 0.00 | 0.00 | 0.00 | 39 | 1021.7 |
| 20260831154038 | 75 | 42 | 1.0 | 3.0 | 0.00 | 0.00 | 0.00 | 45 | 1021.5 |
| 20260831153539 | 75 | 252 | 0.0 | 2.0 | 0.00 | 0.00 | 0.00 | 47 | 1021.5 |
| 20260831153117 | 74 | 0 | 0.0 | 2.0 | 0.00 | 0.00 | 0.00 | 43 | 1021.5 |
| 20260831152539 | 73 | 65 | 0.0 | 2.0 | 0.00 | 0.00 | 0.00 | 46 | 1021.4 |
| 20260831152039 | 73 | 88 | 0.0 | 4.0 | 0.00 | 0.00 | 0.00 | 48 | 1021.5 |
| 20260831151603 | 72 | 0 | 0.0 | 4.0 | 0.00 | 0.00 | 0.00 | 49 | 1021.5 |
| 20260831151040 | 72 | 0 | 2.0 | 4.0 | 0.00 | 0.00 | 0.00 | 49 | 1021.6 |
| 20260831150538 | 71 | 187 | 0.0 | 4.0 | 0.00 | 0.00 | 0.00 | 50 | 1021.5 |
| 20260831150057 | 71 | 187 | 2.0 | 4.0 | 0.00 | 0.00 | 0.00 | 52 | 1021.5 |
| 20260831145540 | 72 | 107 | 1.0 | 4.0 | 0.00 | 0.00 | 0.00 | 53 | 1021.6 |
| 20260831145039 | 70 | 225 | 2.0 | 4.0 | 0.00 | 0.00 | 0.00 | 51 | 1021.6 |
| 20260831144638 | 71 | 335 | 0.0 | 2.0 | 0.00 | 0.00 | 0.00 | 54 | 1021.5 |
| 20260831144038 | 69 | 285 | 0.0 | 2.0 | 0.00 | 0.00 | 0.00 | 60 | 1021.5 |
| 20260831143543 | 66 | 0 | 0.0 | 2.0 | 0.00 | 0.00 | 0.00 | 60 | 1021.3 |
| 20260831143103 | 65 | 0 | 0.0 | 2.0 | 0.00 | 0.00 | 0.00 | 64 | 1021.3 |
| 20260831142538 | 65 | 0 | 0.0 | 2.0 | 0.00 | 0.00 | 0.00 | 68 | 1021.3 |
| 20260831142037 | 64 | 0 | 0.0 | 2.0 | 0.00 | 0.00 | 0.00 | 69 | 1021.3 |
| 20260831141601 | 63 | 0 | 0.0 | 2.0 | 0.00 | 0.00 | 0.00 | 71 | 1021.3 |
| 20260831141040 | 62 | 60 | 0.0 | 2.0 | 0.00 | 0.00 | 0.00 | 72 | 1021.3 |
| 20260831140539 | 62 | 0 | 0.0 | 2.0 | 0.00 | 0.00 | 0.00 | 73 | 1021.1 |
| 20260831140058 | 61 | 0 | 0.0 | 3.0 | 0.00 | 0.00 | 0.00 | 74 | 1021.0 |
| 20260831135538 | 61 | 0 | 0.0 | 3.0 | 0.00 | 0.00 | 0.00 | 75 | 1021.1 |
| 20260831135038 | 60 | 0 | 1.0 | 3.0 | 0.00 | 0.00 | 0.00 | 76 | 1021.1 |
| 20260831134601 | 60 | 0 | 0.0 | 2.0 | 0.00 | 0.00 | 0.00 | 77 | 1021.1 |
| 20260831134038 | 60 | 132 | 0.0 | 2.0 | 0.00 | 0.00 | 0.00 | 77 | 1021.0 |
| 20260831133538 | 60 | 267 | 0.0 | 2.0 | 0.00 | 0.00 | 0.00 | 77 | 1020.9 |
| 20260831133101 | 60 | 0 | 0.0 | 4.0 | 0.00 | 0.00 | 0.00 | 76 | 1020.8 |
| 20260831132538 | 60 | 0 | 0.0 | 4.0 | 0.00 | 0.00 | 0.00 | 75 | 1020.6 |
| 20260831132038 | 60 | 279 | 0.0 | 2.0 | 0.00 | 0.00 | 0.00 | 74 | 1020.6 |
| 20260831131602 | 60 | 0 | 0.0 | 2.0 | 0.00 | 0.00 | 0.00 | 74 | 1020.6 |
| 20260831131039 | 60 | 8 | 0.0 | 2.0 | 0.00 | 0.00 | 0.00 | 75 | 1020.6 |
| 20260831130538 | 60 | 27 | 0.0 | 3.0 | 0.00 | 0.00 | 0.00 | 75 | 1020.5 |
| 20260831130109 | 60 | 347 | 0.0 | 3.0 | 0.00 | 0.00 | 0.00 | 75 | 1020.5 |
| 20260831125538 | 59 | 347 | 1.0 | 3.0 | 0.00 | 0.00 | 0.00 | 76 | 1020.3 |
| 20260831125038 | 59 | 347 | 0.0 | 3.0 | 0.00 | 0.00 | 0.00 | 76 | 1020.3 |
| 20260831124608 | 59 | 0 | 0.0 | 3.0 | 0.00 | 0.00 | 0.00 | 78 | 1020.1 |
| 20260831124038 | 59 | 0 | 1.0 | 3.0 | 0.00 | 0.00 | 0.00 | 78 | 1020.1 |
| 20260831123538 | 59 | 347 | 0.0 | 4.0 | 0.00 | 0.00 | 0.00 | 78 | 1020.2 |
| 20260831123058 | 58 | 347 | 1.0 | 4.0 | 0.00 | 0.00 | 0.00 | 79 | 1020.1 |
| 20260831122540 | 59 | 347 | 1.0 | 3.0 | 0.00 | 0.00 | 0.00 | 81 | 1020.1 |
| 20260831122038 | 58 | 347 | 0.0 | 3.0 | 0.00 | 0.00 | 0.00 | 80 | 1020.1 |
| 20260831121556 | 59 | 347 | 0.0 | 3.0 | 0.00 | 0.00 | 0.00 | 79 | 1020.2 |
| 20260831121038 | 59 | 0 | 0.0 | 8.0 | 0.00 | 0.00 | 0.00 | 79 | 1020.1 |
| 20260831120537 | 59 | 347 | 1.0 | 8.0 | 0.00 | 0.00 | 0.00 | 79 | 1019.9 |
| 20260831120052 | 58 | 347 | 2.0 | 6.0 | 0.00 | 0.00 | 0.00 | 79 | 1020.0 |
| 20260831115538 | 58 | 0 | 0.0 | 4.0 | 0.00 | 0.00 | 0.00 | 80 | 1019.8 |
| 20260831115038 | 58 | 0 | 1.0 | 4.0 | 0.00 | 0.00 | 0.00 | 79 | 1019.8 |
| 20260831114601 | 58 | 347 | 2.0 | 4.0 | 0.00 | 0.00 | 0.00 | 78 | 1019.9 |
| 20260831114039 | 59 | 0 | 2.0 | 4.0 | 0.00 | 0.00 | 0.00 | 78 | 1020.2 |
| 20260831113539 | 59 | 347 | 0.0 | 4.0 | 0.00 | 0.00 | 0.00 | 78 | 1020.1 |
| 20260831113110 | 59 | 0 | 0.0 | 4.0 | 0.00 | 0.00 | 0.00 | 79 | 1020.0 |
| 20260831112539 | 59 | 347 | 2.0 | 4.0 | 0.00 | 0.00 | 0.00 | 79 | 1019.7 |
| 20260831112039 | 59 | 0 | 0.0 | 4.0 | 0.00 | 0.00 | 0.00 | 78 | 1019.8 |
| 20260831111558 | 59 | 347 | 1.0 | 3.0 | 0.00 | 0.00 | 0.00 | 79 | 1019.9 |
| 20260831111038 | 59 | 347 | 0.0 | 4.0 | 0.00 | 0.00 | 0.00 | 78 | 1019.8 |
| 20260831110538 | 58 | 347 | 1.0 | 4.0 | 0.00 | 0.00 | 0.00 | 78 | 1019.7 |
| 20260831110055 | 58 | 347 | 1.0 | 4.0 | 0.00 | 0.00 | 0.00 | 79 | 1019.6 |
| 20260831105538 | 58 | 347 | 1.0 | 6.0 | 0.00 | 0.00 | 0.00 | 80 | 1019.6 |
| 20260831105038 | 58 | 347 | 1.0 | 8.0 | 0.00 | 0.00 | 0.00 | 80 | 1019.4 |
| 20260831104607 | 58 | 347 | 3.0 | 8.0 | 0.00 | 0.00 | 0.00 | 80 | 1019.6 |
| 20260831104038 | 58 | 347 | 2.0 | 5.0 | 0.00 | 0.00 | 0.00 | 81 | 1019.5 |
| 20260831103537 | 58 | 347 | 1.0 | 4.0 | 0.00 | 0.00 | 0.00 | 79 | 1019.5 |
| 20260831103058 | 58 | 0 | 0.0 | 2.0 | 0.00 | 0.00 | 0.00 | 79 | 1019.5 |
| 20260831102537 | 58 | 347 | 0.0 | 2.0 | 0.00 | 0.00 | 0.00 | 78 | 1019.4 |
| 20260831102039 | 58 | 347 | 0.0 | 1.0 | 0.00 | 0.00 | 0.00 | 78 | 1019.2 |
| 20260831101558 | 59 | 0 | 0.0 | 3.0 | 0.00 | 0.00 | 0.00 | 78 | 1019.3 |
| 20260831101039 | 59 | 0 | 0.0 | 4.0 | 0.00 | 0.00 | 0.00 | 77 | 1019.3 |
| 20260831100539 | 59 | 347 | 0.0 | 4.0 | 0.00 | 0.00 | 0.00 | 77 | 1019.2 |
| 20260831100116 | 59 | 0 | 2.0 | 4.0 | 0.00 | 0.00 | 0.00 | 76 | 1019.1 |
| 20260831095537 | 59 | 347 | 1.0 | 3.0 | 0.00 | 0.00 | 0.00 | 77 | 1019.0 |
| 20260831095037 | 59 | 0 | 0.0 | 2.0 | 0.00 | 0.00 | 0.00 | 77 | 1019.1 |
| 20260831094600 | 59 | 0 | 0.0 | 3.0 | 0.00 | 0.00 | 0.00 | 78 | 1018.9 |
| 20260831094039 | 59 | 347 | 0.0 | 3.0 | 0.00 | 0.00 | 0.00 | 79 | 1019.1 |
| 20260831093539 | 59 | 0 | 1.0 | 6.0 | 0.00 | 0.00 | 0.00 | 80 | 1019.1 |
| 20260831093104 | 59 | 347 | 1.0 | 6.0 | 0.00 | 0.00 | 0.00 | 79 | 1019.0 |
| 20260831092540 | 59 | 347 | 2.0 | 6.0 | 0.00 | 0.00 | 0.00 | 78 | 1019.1 |
| 20260831092039 | 60 | 0 | 1.0 | 4.0 | 0.00 | 0.00 | 0.00 | 78 | 1018.9 |
| 20260831091557 | 60 | 15 | 0.0 | 3.0 | 0.00 | 0.00 | 0.00 | 78 | 1019.0 |
| 20260831091039 | 60 | 0 | 1.0 | 3.0 | 0.00 | 0.00 | 0.00 | 77 | 1018.8 |
| 20260831090539 | 60 | 67 | 0.0 | 1.0 | 0.00 | 0.00 | 0.00 | 77 | 1018.8 |
| 20260831085539 | 61 | 0 | 0.0 | 1.0 | 0.00 | 0.00 | 0.00 | 75 | 1018.8 |
| 20260831085038 | 61 | 66 | 0.0 | 1.0 | 0.00 | 0.00 | 0.00 | 75 | 1018.9 |
| 20260831084636 | 61 | 0 | 0.0 | 1.0 | 0.00 | 0.00 | 0.00 | 75 | 1019.0 |
| 20260831084037 | 61 | 0 | 0.0 | 2.0 | 0.00 | 0.00 | 0.00 | 75 | 1018.8 |
| 20260831083537 | 61 | 0 | 0.0 | 4.0 | 0.00 | 0.00 | 0.00 | 76 | 1018.9 |
| 20260831083058 | 61 | 65 | 0.0 | 4.0 | 0.00 | 0.00 | 0.00 | 76 | 1018.9 |
| 20260831082538 | 61 | 64 | 2.0 | 4.0 | 0.00 | 0.00 | 0.00 | 77 | 1018.8 |
| 20260831082040 | 61 | 0 | 0.0 | 1.0 | 0.00 | 0.00 | 0.00 | 75 | 1018.7 |
| 20260831081556 | 61 | 0 | 0.0 | 1.0 | 0.00 | 0.00 | 0.00 | 75 | 1018.7 |
| 20260831081038 | 61 | 0 | 0.0 | 1.0 | 0.00 | 0.00 | 0.00 | 75 | 1018.8 |
| 20260831080540 | 61 | 0 | 0.0 | 4.0 | 0.00 | 0.00 | 0.00 | 73 | 1018.7 |
| 20260831080113 | 61 | 0 | 0.0 | 4.0 | 0.00 | 0.00 | 0.00 | 74 | 1018.7 |
| 20260831075541 | 61 | 232 | 2.0 | 4.0 | 0.00 | 0.00 | 0.00 | 74 | 1018.8 |
| 20260831075041 | 62 | 262 | 0.0 | 2.0 | 0.00 | 0.00 | 0.00 | 73 | 1018.9 |
| 20260831074607 | 62 | 119 | 0.0 | 2.0 | 0.00 | 0.00 | 0.00 | 73 | 1018.7 |
| 20260831074038 | 62 | 0 | 0.0 | 2.0 | 0.00 | 0.00 | 0.00 | 71 | 1018.9 |
| 20260831073538 | 62 | 131 | 0.0 | 2.0 | 0.00 | 0.00 | 0.00 | 71 | 1019.1 |
| 20260831073058 | 62 | 131 | 0.0 | 2.0 | 0.00 | 0.00 | 0.00 | 71 | 1019.1 |
| 20260831072543 | 62 | 123 | 0.0 | 2.0 | 0.00 | 0.00 | 0.00 | 71 | 1019.0 |
| 20260831072038 | 62 | 0 | 0.0 | 2.0 | 0.00 | 0.00 | 0.00 | 71 | 1018.9 |
| 20260831071607 | 62 | 103 | 0.0 | 3.0 | 0.00 | 0.00 | 0.00 | 71 | 1019.0 |
| 20260831071039 | 62 | 0 | 1.0 | 8.0 | 0.00 | 0.00 | 0.00 | 71 | 1019.2 |
| 20260831070538 | 62 | 137 | 1.0 | 8.0 | 0.00 | 0.00 | 0.00 | 72 | 1019.2 |
| 20260831070101 | 63 | 45 | 3.0 | 8.0 | 0.00 | 0.00 | 0.00 | 72 | 1019.2 |
| 20260831065538 | 63 | 0 | 1.0 | 5.0 | 0.00 | 0.00 | 0.00 | 73 | 1019.1 |
| 20260831065037 | 63 | 342 | 2.0 | 4.0 | 0.00 | 0.00 | 0.00 | 72 | 1019.2 |
| 20260831064600 | 63 | 359 | 1.0 | 4.0 | 0.00 | 0.00 | 0.00 | 72 | 1019.3 |
| 20260831064037 | 64 | 275 | 0.0 | 4.0 | 0.00 | 0.00 | 0.00 | 71 | 1019.3 |
| 20260831063537 | 64 | 347 | 0.0 | 5.0 | 0.00 | 0.00 | 0.00 | 70 | 1019.1 |
| 20260831063101 | 64 | 0 | 0.0 | 5.0 | 0.00 | 0.00 | 0.00 | 69 | 1019.2 |
| 20260831062541 | 64 | 347 | 1.0 | 5.0 | 0.00 | 0.00 | 0.00 | 70 | 1019.4 |
| 20260831062038 | 64 | 0 | 0.0 | 8.0 | 0.00 | 0.00 | 0.00 | 70 | 1019.4 |
| 20260831061558 | 64 | 331 | 2.0 | 8.0 | 0.00 | 0.00 | 0.00 | 70 | 1019.4 |
| 20260831061038 | 64 | 356 | 0.0 | 4.0 | 0.00 | 0.00 | 0.00 | 71 | 1019.6 |
| 20260831060539 | 64 | 0 | 1.0 | 5.0 | 0.00 | 0.00 | 0.00 | 69 | 1019.5 |
| 20260831060105 | 64 | 167 | 1.0 | 6.0 | 0.00 | 0.00 | 0.00 | 68 | 1019.6 |
| 20260831055539 | 64 | 183 | 1.0 | 6.0 | 0.00 | 0.00 | 0.00 | 67 | 1019.6 |
| 20260831055039 | 64 | 116 | 2.0 | 6.0 | 0.00 | 0.00 | 0.00 | 67 | 1019.6 |
| 20260831054601 | 64 | 169 | 1.0 | 6.0 | 0.00 | 0.00 | 0.00 | 67 | 1019.7 |
| 20260831054039 | 64 | 246 | 2.0 | 6.0 | 0.00 | 0.00 | 0.00 | 67 | 1019.9 |
| 20260831053538 | 64 | 140 | 2.0 | 4.0 | 0.00 | 0.00 | 0.00 | 67 | 1019.8 |
| 20260831053114 | 64 | 134 | 0.0 | 2.0 | 0.00 | 0.00 | 0.00 | 67 | 1019.8 |
| 20260831052538 | 64 | 0 | 0.0 | 4.0 | 0.00 | 0.00 | 0.00 | 66 | 1019.8 |
| 20260831052037 | 64 | 0 | 1.0 | 4.0 | 0.00 | 0.00 | 0.00 | 67 | 1019.8 |
| 20260831051555 | 64 | 0 | 0.0 | 3.0 | 0.00 | 0.00 | 0.00 | 68 | 1019.7 |
| 20260831051038 | 64 | 0 | 0.0 | 2.0 | 0.00 | 0.00 | 0.00 | 72 | 1019.9 |
| 20260831050540 | 64 | 0 | 0.0 | 1.0 | 0.00 | 0.00 | 0.00 | 73 | 1019.9 |
| 20260831050120 | 64 | 0 | 0.0 | 0.0 | 0.00 | 0.00 | 0.00 | 71 | 1020.0 |
| 20260831045538 | 64 | 0 | 0.0 | 1.0 | 0.00 | 0.00 | 0.00 | 70 | 1019.9 |
| 20260831045038 | 64 | 0 | 0.0 | 1.0 | 0.00 | 0.00 | 0.00 | 70 | 1019.9 |
| 20260831044601 | 64 | 0 | 0.0 | 2.0 | 0.00 | 0.00 | 0.00 | 70 | 1020.1 |
| 20260831044037 | 64 | 0 | 0.0 | 2.0 | 0.00 | 0.00 | 0.00 | 69 | 1020.1 |
| 20260831043538 | 65 | 0 | 0.0 | 4.0 | 0.00 | 0.00 | 0.00 | 69 | 1020.1 |
| 20260831043100 | 65 | 0 | 1.0 | 4.0 | 0.00 | 0.00 | 0.00 | 68 | 1020.1 |
| 20260831042537 | 65 | 36 | 0.0 | 4.0 | 0.00 | 0.00 | 0.00 | 65 | 1020.0 |
| 20260831042037 | 65 | 66 | 0.0 | 1.0 | 0.00 | 0.00 | 0.00 | 64 | 1019.9 |
| 20260831041619 | 65 | 0 | 0.0 | 0.0 | 0.00 | 0.00 | 0.00 | 64 | 1019.8 |
| 20260831041038 | 65 | 0 | 0.0 | 0.0 | 0.00 | 0.00 | 0.00 | 65 | 1019.8 |
| 20260831040538 | 65 | 0 | 0.0 | 0.0 | 0.00 | 0.00 | 0.00 | 67 | 1019.7 |
| 20260831035541 | 65 | 0 | 0.0 | 1.0 | 0.00 | 0.00 | 0.00 | 65 | 1019.8 |
| 20260831035037 | 65 | 0 | 0.0 | 1.0 | 0.00 | 0.00 | 0.00 | 61 | 1019.9 |
| 20260831034600 | 65 | 0 | 0.0 | 0.0 | 0.00 | 0.00 | 0.00 | 62 | 1020.0 |
| 20260831034038 | 65 | 0 | 0.0 | 4.0 | 0.00 | 0.00 | 0.00 | 62 | 1020.0 |
| 20260831033541 | 65 | 0 | 0.0 | 5.0 | 0.00 | 0.00 | 0.00 | 63 | 1020.0 |
| 20260831033113 | 65 | 52 | 3.0 | 5.0 | 0.00 | 0.00 | 0.00 | 63 | 1019.9 |
| 20260831032539 | 65 | 0 | 0.0 | 4.0 | 0.00 | 0.00 | 0.00 | 66 | 1019.8 |
| 20260831032041 | 65 | 0 | 0.0 | 4.0 | 0.00 | 0.00 | 0.00 | 68 | 1019.8 |
| 20260831031556 | 65 | 347 | 1.0 | 5.0 | 0.00 | 0.00 | 0.00 | 70 | 1019.6 |
| 20260831031037 | 65 | 0 | 0.0 | 5.0 | 0.00 | 0.00 | 0.00 | 70 | 1019.5 |
| 20260831030538 | 65 | 347 | 0.0 | 2.0 | 0.00 | 0.00 | 0.00 | 68 | 1019.5 |
| 20260831030052 | 65 | 0 | 0.0 | 1.0 | 0.00 | 0.00 | 0.00 | 69 | 1019.5 |
| 20260831025538 | 65 | 0 | 0.0 | 1.0 | 0.00 | 0.00 | 0.00 | 71 | 1019.6 |
| 20260831025039 | 66 | 0 | 0.0 | 1.0 | 0.00 | 0.00 | 0.00 | 69 | 1019.5 |
| 20260831024604 | 66 | 0 | 0.0 | 1.0 | 0.00 | 0.00 | 0.00 | 67 | 1019.6 |
| 20260831024042 | 66 | 0 | 0.0 | 1.0 | 0.00 | 0.00 | 0.00 | 66 | 1019.3 |
| 20260831023537 | 66 | 0 | 0.0 | 1.0 | 0.00 | 0.00 | 0.00 | 67 | 1019.3 |
| 20260831023101 | 66 | 0 | 0.0 | 1.0 | 0.00 | 0.00 | 0.00 | 62 | 1019.2 |
| 20260831022537 | 67 | 0 | 0.0 | 1.0 | 0.00 | 0.00 | 0.00 | 63 | 1019.1 |
| 20260831022038 | 67 | 0 | 0.0 | 1.0 | 0.00 | 0.00 | 0.00 | 61 | 1018.8 |
| 20260831021555 | 67 | 347 | 0.0 | 2.0 | 0.00 | 0.00 | 0.00 | 60 | 1018.8 |
| 20260831021037 | 67 | 347 | 0.0 | 2.0 | 0.00 | 0.00 | 0.00 | 61 | 1018.8 |
| 20260831020541 | 68 | 0 | 0.0 | 2.0 | 0.00 | 0.00 | 0.00 | 61 | 1018.7 |
| 20260831020059 | 68 | 347 | 0.0 | 1.0 | 0.00 | 0.00 | 0.00 | 60 | 1018.7 |
| 20260831015538 | 68 | 0 | 0.0 | 1.0 | 0.00 | 0.00 | 0.00 | 59 | 1018.8 |
| 20260831015037 | 68 | 0 | 0.0 | 1.0 | 0.00 | 0.00 | 0.00 | 63 | 1018.6 |
| 20260831014604 | 69 | 0 | 0.0 | 1.0 | 0.00 | 0.00 | 0.00 | 64 | 1018.5 |
| 20260831014037 | 69 | 36 | 0.0 | 2.0 | 0.00 | 0.00 | 0.00 | 56 | 1018.5 |
| 20260831013537 | 69 | 0 | 0.0 | 2.0 | 0.00 | 0.00 | 0.00 | 56 | 1018.4 |
| 20260831013059 | 69 | 36 | 0.0 | 2.0 | 0.00 | 0.00 | 0.00 | 57 | 1018.3 |
| 20260831012539 | 70 | 36 | 0.0 | 2.0 | 0.00 | 0.00 | 0.00 | 56 | 1018.3 |
| 20260831012037 | 70 | 0 | 0.0 | 4.0 | 0.00 | 0.00 | 0.00 | 55 | 1018.3 |
| 20260831011554 | 70 | 27 | 1.0 | 4.0 | 0.00 | 0.00 | 0.00 | 56 | 1018.4 |
| 20260831011039 | 71 | 29 | 2.0 | 4.0 | 0.00 | 0.00 | 0.00 | 56 | 1018.5 |
| 20260831010538 | 71 | 15 | 1.0 | 3.0 | 0.00 | 0.00 | 0.00 | 53 | 1018.5 |
| 20260831010111 | 72 | 356 | 1.0 | 3.0 | 0.00 | 0.00 | 0.00 | 50 | 1018.4 |
| 20260831005538 | 72 | 114 | 0.0 | 1.0 | 0.00 | 0.00 | 0.00 | 55 | 1018.4 |
| 20260831005038 | 72 | 0 | 0.0 | 1.0 | 0.00 | 0.00 | 0.00 | 48 | 1018.3 |
| 20260831004606 | 72 | 0 | 0.0 | 3.0 | 0.00 | 0.00 | 0.00 | 48 | 1018.4 |
| 20260831004039 | 72 | 0 | 0.0 | 3.0 | 0.00 | 0.00 | 0.00 | 46 | 1018.4 |